Cleveland, OH

1:58 PM EST on January 21, 2018 (GMT -0500)
Cleveland-Hopkins International

Weather History for KCLE - March, 2014

Change the Weather History Date:

Wednesday, March 26, 2014

  Actual Average Record
Temperature  
Mean Temperature 24 °F 42 °F  
Max Temperature 30 °F 51 °F 80 °F (1967)
Min Temperature 17 °F 33 °F 14 °F (2001)
Degree Days  
Heating Degree Days 41 23  
Month to date heating degree days 883 714  
Since 1 July heating degree days 5564 4931  
Cooling Degree Days 0 0  
Month to date cooling degree days 0 0  
Year to date cooling degree days 0 0  
Moisture  
Dew Point 11 °F    
Average Humidity 63    
Maximum Humidity 84    
Minimum Humidity 42    
Precipitation  
Precipitation 0.08 in 0.10 in 0.97 in (1950)
Month to date precipitation 1.35 2.38  
Year to date precipitation 6.38 7.44  
Snow  
Snow 1.20 in 0.30 in - ()
Month to date snowfall 10.1 11.1  
Since 1 July snowfall 79.8 63.3  
Snow Depth 2.00 in    
Sea Level Pressure  
Sea Level Pressure 30.26 in    
Wind  
Wind Speed 10 mph (NNW)    
Max Wind Speed 20 mph    
Max Gust Speed 26 mph    
Visibility 7 miles    
Events Snow    
T = Trace of Precipitation, MM = Missing Value Source: NWS Daily Summary

Daily Weather History Graph

Daily Weather History Graph

Search for Another Location

Airport or City:

Trip Planner

Search our weather history database for the weather conditions in past years. The results will help you decide how hot, cold, wet, or windy it might be!

Date:

Astronomy

Mar. 26, 2014 Rise Set
Actual Time 7:20 AM EDT 7:46 PM EDT
Civil Twilight 6:52 AM EDT 8:13 PM EDT
Nautical Twilight 6:20 AM EDT 8:46 PM EDT
Astronomical Twilight 5:46 AM EDT 9:20 PM EDT
Moon 4:31 AM EDT (3/26) 3:20 PM EDT (3/26)
Length of Visible Light 13h 20m
Length of Day
12h 25m
Waning Crescent, 22% of the Moon is Illuminated
Mar 26
Waning Crescent
Mar 30
New
Apr 7
First Quarter
Apr 15
Full
Apr 22
Last Quarter

Hourly Weather History & Observations

Time (EDT) Temp. Windchill Dew Point Humidity Pressure Visibility Wind Dir Wind Speed Gust Speed Precip Events Conditions
12:01 AM 24.1 °F 12.0 °F 19.0 °F 81% 30.11 in 1.2 mi NNW 13.8 mph - 0.00 in Snow Light Snow
12:16 AM 24.1 °F 12.0 °F 18.0 °F 77% 30.11 in 2.0 mi NNW 13.8 mph - 0.00 in Snow Light Snow
12:33 AM 23.0 °F 9.6 °F 17.1 °F 78% 30.12 in 1.2 mi NNW 16.1 mph - 0.00 in Snow Light Snow
12:51 AM 23.0 °F 9.6 °F 16.0 °F 74% 30.15 in 2.5 mi NNW 16.1 mph - 0.00 in Snow Light Snow
1:00 AM 23.0 °F 10.6 °F 16.0 °F 74% 30.13 in 3.0 mi NW 13.8 mph - 0.00 in Snow Light Snow
1:16 AM 24.1 °F 12.0 °F 12.9 °F 62% 30.13 in 9.0 mi NNW 13.8 mph - 0.00 in Snow Light Snow
1:42 AM 23.0 °F 11.7 °F 16.0 °F 74% 30.14 in 4.0 mi North 11.5 mph - 0.00 in Snow Light Snow
1:45 AM 21.2 °F 9.5 °F 15.8 °F 80% 30.14 in 1.8 mi North 11.5 mph - 0.00 in Snow Light Snow
1:51 AM 21.9 °F 9.2 °F 16.0 °F 78% 30.17 in 0.8 mi North 13.8 mph - 0.00 in Snow Light Snow
1:55 AM 21.9 °F - 17.1 °F 82% 30.15 in 0.8 mi North - - 0.00 in Snow Light Snow
2:45 AM 19.4 °F 6.0 °F 15.8 °F 86% 30.17 in 1.2 mi North 13.8 mph - 0.02 in Snow Light Snow
2:49 AM 21.2 °F 8.3 °F 15.8 °F 80% 30.17 in 2.0 mi North 13.8 mph - 0.02 in Snow Light Snow
2:51 AM 21.0 °F 8.1 °F 15.1 °F 78% 30.20 in 2.0 mi North 13.8 mph - 0.02 in Snow Light Snow
3:04 AM 19.9 °F 6.7 °F 14.0 °F 78% 30.18 in 2.5 mi North 13.8 mph - 0.00 in Snow Light Snow
3:32 AM 19.9 °F 6.7 °F 12.9 °F 74% 30.18 in 3.0 mi North 13.8 mph - 0.00 in Snow Light Snow
3:51 AM 19.9 °F 5.7 °F 9.0 °F 62% 30.22 in 9.0 mi North 16.1 mph - 0.00 in Snow Light Snow
4:51 AM 19.9 °F 6.7 °F 5.0 °F 52% 30.23 in 10.0 mi North 13.8 mph - 0.00 in   Overcast
5:51 AM 19.0 °F 6.8 °F 1.9 °F 47% 30.26 in 10.0 mi NNW 11.5 mph - N/A   Mostly Cloudy
6:51 AM 18.0 °F 6.1 °F -0.0 °F 45% 30.29 in 10.0 mi NNW 10.4 mph - N/A   Scattered Clouds
7:51 AM 19.0 °F 10.0 °F 1.0 °F 46% 30.32 in 10.0 mi North 6.9 mph - N/A   Scattered Clouds
8:51 AM 19.9 °F 11.1 °F 1.9 °F 46% 30.34 in 10.0 mi North 6.9 mph - N/A   Scattered Clouds
9:51 AM 28.0 °F 19.3 °F 21.0 °F 75% 30.37 in 10.0 mi NNW 9.2 mph - N/A   Mostly Cloudy
10:51 AM 21.9 °F 11.0 °F 5.0 °F 48% 30.38 in 10.0 mi NW 10.4 mph - N/A   Mostly Cloudy
11:51 AM 23.0 °F 10.1 °F 5.0 °F 46% 30.40 in 10.0 mi NW 15.0 mph - N/A   Mostly Cloudy
12:51 PM 23.0 °F 13.9 °F 7.0 °F 50% 30.38 in 10.0 mi WNW 8.1 mph - N/A   Mostly Cloudy
1:51 PM 26.1 °F 15.0 °F 9.0 °F 49% 30.39 in 10.0 mi West 12.7 mph 25.3 mph N/A   Overcast
2:51 PM 27.0 °F 16.1 °F 8.1 °F 45% 30.37 in 10.0 mi WNW 12.7 mph 23.0 mph N/A   Scattered Clouds
3:51 PM 28.0 °F 18.1 °F 8.1 °F 43% 30.35 in 10.0 mi West 11.5 mph 18.4 mph N/A   Scattered Clouds
4:51 PM 27.0 °F 19.5 °F 9.0 °F 47% 30.35 in 10.0 mi West 6.9 mph - N/A   Mostly Cloudy
5:51 PM 28.0 °F 21.7 °F 10.9 °F 49% 30.33 in 10.0 mi NNE 5.8 mph - N/A   Partly Cloudy
6:51 PM 28.0 °F 22.8 °F 10.0 °F 47% 30.33 in 10.0 mi NE 4.6 mph - N/A   Mostly Cloudy
7:51 PM 26.1 °F 19.4 °F 10.0 °F 51% 30.32 in 10.0 mi East 5.8 mph - N/A   Scattered Clouds
8:51 PM 25.0 °F 18.1 °F 10.9 °F 55% 30.31 in 10.0 mi East 5.8 mph - N/A   Partly Cloudy
9:51 PM 25.0 °F 19.3 °F 10.9 °F 55% 30.29 in 10.0 mi East 4.6 mph - N/A   Clear
10:51 PM 24.1 °F 17.0 °F 10.9 °F 57% 30.33 in 10.0 mi SE 5.8 mph - N/A   Clear
11:51 PM 24.1 °F 14.4 °F 10.9 °F 57% 30.32 in 10.0 mi SSE 9.2 mph - N/A   Partly Cloudy